When you browse on this site, cookies collect data to enhance your experience and personalize the content and advertising you see.
Visit our Privacy Policy to learn more. By continuing to use the site, you agree to this use of cookies and data.
  • In Hungary
  • List of Countries
  • For 7 days
  • Water Temperature
  • Satellite Maps
  • Weather Map
  • News
  • Weather Widgets
  • user-avatar
    Login

    Hourly Weather Manchester

    Today, 23 February, Saturday

    Time Temperature Precipitation Wind Pressure Humidity
    00:00 -5°C° 0 mm 2 mps 766 mmHg 82%
    01:00 -6°C° 0 mm 3 mps 766 mmHg 80%
    02:00 -5°C° 0 mm 2 mps 766 mmHg 82%
    03:00 -6°C° 0 mm 2 mps 766 mmHg 84%
    04:00 -4°C° 0 mm 1 mps 766 mmHg 85%
    05:00 -6°C° 0 mm 1 mps 766 mmHg 85%
    06:00 -6°C° 0 mm 1 mps 766 mmHg 85%
    07:00 -6°C° 0 mm 1 mps 767 mmHg 86%
    08:00 -3°C° 0 mm 1 mps 767 mmHg 78%
    09:00 -1°C° 0 mm 1 mps 766 mmHg 71%
    10:00 +2°C° 0 mm 1 mps 766 mmHg 64%
    11:00 +3°C° 0 mm 1 mps 766 mmHg 62%
    12:00 +3°C° 0 mm 2 mps 765 mmHg 59%
    13:00 +4°C° 0 mm 2 mps 765 mmHg 57%
    14:00 +5°C° 0 mm 1 mps 764 mmHg 61%
    15:00 +5°C° 0 mm 1 mps 764 mmHg 65%
    16:00 +5°C° 0 mm 1 mps 763 mmHg 69%
    17:00 +3°C° 0 mm 1 mps 763 mmHg 75%
    18:00 +2°C° 0 mm 1 mps 763 mmHg 80%
    19:00 0°C° 0 mm 1 mps 763 mmHg 86%
    20:00 0°C° 0 mm 1 mps 763 mmHg 87%
    21:00 0°C° 0 mm 1 mps 762 mmHg 88%
    22:00 0°C° 0 mm 1 mps 762 mmHg 90%
    23:00 0°C° 0 mm 1 mps 761 mmHg 89%

    Tomorrow, 24 February, Sunday

    Time Temperature Precipitation Wind Pressure Humidity
    00:00 0°C° 0 mm 1 mps 761 mmHg 89%
    01:00 0°C° 0 mm 1 mps 760 mmHg 88%
    02:00 0°C° 0 mm 1 mps 759 mmHg 88%
    03:00 0°C° 0 mm 1 mps 758 mmHg 88%
    04:00 0°C° 0 mm 1 mps 757 mmHg 87%
    05:00 -1°C° 0.2 mm 2 mps 756 mmHg 89%
    06:00 -1°C° 0.2 mm 2 mps 755 mmHg 90%
    07:00 -1°C° 0.2 mm 3 mps 754 mmHg 92%
    08:00 0°C° 1.2 mm 3 mps 752 mmHg 93%
    09:00 +1°C° 1.2 mm 3 mps 751 mmHg 94%
    10:00 +1°C° 1.2 mm 4 mps 750 mmHg 96%
    11:00 +1°C° 2.4 mm 4 mps 747 mmHg 96%
    12:00 +3°C° 2.4 mm 4 mps 745 mmHg 96%
    13:00 +3°C° 2.4 mm 4 mps 743 mmHg 97%
    14:00 +4°C° 0.5 mm 4 mps 741 mmHg 97%
    15:00 +5°C° 0.5 mm 4 mps 739 mmHg 97%
    16:00 +5°C° 0.5 mm 4 mps 737 mmHg 98%
    17:00 +5°C° 0.4 mm 4 mps 735 mmHg 97%
    18:00 +5°C° 0.4 mm 3 mps 734 mmHg 97%
    19:00 +5°C° 0.4 mm 2 mps 733 mmHg 97%
    20:00 +4°C° 0 mm 4 mps 733 mmHg 90%
    21:00 +3°C° 0 mm 5 mps 733 mmHg 83%
    22:00 +3°C° 0 mm 7 mps 733 mmHg 75%
    23:00 +2°C° 0 mm 6 mps 733 mmHg 75%

    Day after tomorrow, 25 February, Monday

    Time Temperature Precipitation Wind Pressure Humidity
    00:00 +1°C° 0 mm 6 mps 733 mmHg 74%
    01:00 -1°C° 0 mm 6 mps 734 mmHg 73%
    02:00 -1°C° 0 mm 6 mps 734 mmHg 71%
    03:00 -2°C° 0 mm 7 mps 734 mmHg 68%
    04:00 -2°C° 0 mm 7 mps 734 mmHg 66%
    05:00 -2°C° 0 mm 7 mps 735 mmHg 65%
    06:00 -3°C° 0 mm 7 mps 735 mmHg 64%
    07:00 -3°C° 0 mm 7 mps 736 mmHg 63%
    08:00 -4°C° 0 mm 8 mps 737 mmHg 60%
    09:00 -4°C° 0 mm 9 mps 738 mmHg 57%
    10:00 -3°C° 0 mm 9 mps 739 mmHg 54%
    11:00 -4°C° 0 mm 9 mps 740 mmHg 52%
    12:00 -4°C° 0 mm 10 mps 741 mmHg 49%
    13:00 -4°C° 0 mm 10 mps 743 mmHg 47%
    14:00 -5°C° 0 mm 10 mps 744 mmHg 47%
    15:00 -6°C° 0 mm 9 mps 745 mmHg 47%
    16:00 -6°C° 0 mm 9 mps 746 mmHg 48%
    17:00 -9°C° 0 mm 9 mps 748 mmHg 48%
    18:00 -10°C° 0 mm 8 mps 749 mmHg 48%
    19:00 -11°C° 0 mm 8 mps 751 mmHg 47%
    20:00 -12°C° 0 mm 8 mps 752 mmHg 46%
    21:00 -13°C° 0 mm 8 mps 753 mmHg 45%
    22:00 -15°C° 0 mm 8 mps 754 mmHg 43%
    23:00 -15°C° 0 mm 8 mps 755 mmHg 43%

    26 February, Tuesday

    Time Temperature Precipitation Wind Pressure Humidity
    00:00 -16°C° 0 mm 8 mps 755 mmHg 44%
    01:00 -16°C° 0 mm 8 mps 756 mmHg 44%
    02:00 -17°C° 0 mm 8 mps 756 mmHg 45%
    03:00 -17°C° 0 mm 7 mps 757 mmHg 45%
    04:00 -18°C° 0 mm 7 mps 758 mmHg 46%
    05:00 -18°C° 0 mm 7 mps 759 mmHg 47%
    06:00 -18°C° 0 mm 7 mps 760 mmHg 47%
    07:00 -18°C° 0 mm 7 mps 761 mmHg 48%
    08:00 -18°C° 0 mm 7 mps 761 mmHg 45%
    09:00 -17°C° 0 mm 7 mps 761 mmHg 41%
    10:00 -15°C° 0 mm 7 mps 762 mmHg 38%
    11:00 -14°C° 0 mm 7 mps 762 mmHg 36%
    12:00 -14°C° 0 mm 7 mps 761 mmHg 34%
    13:00 -13°C° 0 mm 7 mps 761 mmHg 33%
    14:00 -13°C° 0 mm 7 mps 761 mmHg 33%
    15:00 -13°C° 0 mm 7 mps 761 mmHg 34%
    16:00 -12°C° 0 mm 6 mps 762 mmHg 35%
    17:00 -14°C° 0 mm 6 mps 762 mmHg 38%
    18:00 -14°C° 0 mm 6 mps 763 mmHg 40%
    19:00 -14°C° 0 mm 5 mps 764 mmHg 43%
    20:00 -14°C° 0 mm 5 mps 764 mmHg 44%
    21:00 -15°C° 0 mm 5 mps 764 mmHg 45%
    22:00 -15°C° 0 mm 5 mps 764 mmHg 46%
    23:00 -16°C° 0 mm 4 mps 764 mmHg 47%

    27 February, Wednesday

    Time Temperature Precipitation Wind Pressure Humidity
    00:00 -16°C° 0 mm 4 mps 764 mmHg 48%
    01:00 -16°C° 0 mm 4 mps 764 mmHg 50%
    02:00 -15°C° 0 mm 3 mps 763 mmHg 50%
    03:00 -15°C° 0 mm 3 mps 763 mmHg 50%
    04:00 -13°C° 0 mm 2 mps 762 mmHg 50%
    05:00 -13°C° 0 mm 2 mps 762 mmHg 52%
    06:00 -11°C° 0 mm 1 mps 762 mmHg 55%
    07:00 -11°C° 0 mm 1 mps 761 mmHg 57%
    08:00 -10°C° 0.3 mm 1 mps 760 mmHg 64%
    09:00 -10°C° 0.3 mm 1 mps 759 mmHg 71%
    10:00 -9°C° 0.3 mm 1 mps 758 mmHg 77%
    11:00 -10°C° 0.6 mm 2 mps 756 mmHg 80%
    12:00 -9°C° 0.6 mm 2 mps 755 mmHg 83%
    13:00 -9°C° 0.6 mm 2 mps 753 mmHg 85%
    14:00 -9°C° 0.9 mm 2 mps 752 mmHg 87%
    15:00 -9°C° 0.9 mm 2 mps 751 mmHg 88%
    16:00 -7°C° 0.9 mm 1 mps 750 mmHg 90%
    17:00 -8°C° 0.1 mm 1 mps 750 mmHg 91%
    18:00 -8°C° 0.1 mm 1 mps 750 mmHg 92%
    19:00 -8°C° 0.1 mm 1 mps 750 mmHg 92%
    20:00 -8°C° 0 mm 1 mps 751 mmHg 93%
    21:00 -9°C° 0 mm 1 mps 751 mmHg 94%
    22:00 -9°C° 0 mm 1 mps 752 mmHg 95%
    23:00 -10°C° 0 mm 2 mps 753 mmHg 89%

    28 February, Thursday

    Time Temperature Precipitation Wind Pressure Humidity
    00:00 -12°C° 0 mm 3 mps 754 mmHg 84%
    01:00 -12°C° 0 mm 4 mps 754 mmHg 79%
    02:00 -12°C° 0 mm 4 mps 755 mmHg 77%
    03:00 -14°C° 0 mm 4 mps 756 mmHg 75%
    04:00 -15°C° 0 mm 4 mps 757 mmHg 73%
    05:00 -14°C° 0 mm 3 mps 758 mmHg 73%
    06:00 -15°C° 0 mm 3 mps 759 mmHg 73%
    07:00 -15°C° 0 mm 3 mps 759 mmHg 73%
    08:00 -13°C° 0 mm 3 mps 760 mmHg 67%
    09:00 -10°C° 0 mm 3 mps 760 mmHg 60%
    10:00 -9°C° 0 mm 4 mps 760 mmHg 54%
    11:00 -7°C° 0 mm 3 mps 760 mmHg 52%
    12:00 -6°C° 0 mm 3 mps 760 mmHg 51%
    13:00 -4°C° 0 mm 3 mps 760 mmHg 49%
    14:00 -3°C° 0 mm 2 mps 760 mmHg 50%
    15:00 -3°C° 0 mm 2 mps 760 mmHg 50%
    16:00 -2°C° 0 mm 2 mps 760 mmHg 50%
    17:00 -2°C° 0 mm 1 mps 760 mmHg 59%
    18:00 -4°C° 0 mm 1 mps 761 mmHg 68%
    19:00 -7°C° 0 mm 1 mps 761 mmHg 76%
    20:00 -7°C° 0 mm 1 mps 761 mmHg 78%
    21:00 -7°C° 0 mm 1 mps 761 mmHg 80%
    22:00 -8°C° 0 mm 0 mps 761 mmHg 82%
    23:00 -8°C° 0 mm 0 mps 761 mmHg 81%
    Show more